Zurück zum Katalog

DELTA 1 R/B(2)

AktivGTO
NORAD 1318·ROCKET BODY·🇺🇸 United States

Gestartet Apr 6, 1965 von Cape Canaveral Space Force Station

Loading…

TLE

AlterndSource: Space-Track

Epoche: Sep 14, 2026, 07:35 UTC

1 01318U 65028B   26257.31650449 -.00000041  00000-0  00000-0 0  9994
2 01318  17.4026 241.4984 6956798 196.5467 113.6397  2.11826235109218

Verfolge DELTA 1 R/B(2) in Echtzeit mit AllMySat

Download on the App Store